TimeEDT,TemperatureF,Dew PointF,Humidity,Sea Level PressureIn,VisibilityMPH,Wind Direction,Wind SpeedMPH,Gust SpeedMPH,PrecipitationIn,Events,Conditions,WindDirDegrees,DateUTC
12:53 AM,39.0,35.1,86,30.18,10.0,West,6.9,-,N/A,,Mostly Cloudy,260,2012-10-08 04:53:00
1:53 AM,39.9,34.0,79,30.18,10.0,WSW,6.9,-,N/A,,Mostly Cloudy,250,2012-10-08 05:53:00
2:53 AM,41.0,35.1,79,30.20,10.0,West,5.8,-,N/A,,Overcast,260,2012-10-08 06:53:00
3:53 AM,41.0,35.1,79,30.20,10.0,WSW,4.6,-,N/A,,Overcast,250,2012-10-08 07:53:00
4:53 AM,37.0,33.1,86,30.21,10.0,SW,5.8,-,N/A,,Partly Cloudy,230,2012-10-08 08:53:00
5:53 AM,37.9,34.0,86,30.21,10.0,WSW,6.9,-,N/A,,Clear,240,2012-10-08 09:53:00
6:53 AM,36.0,33.1,89,30.23,10.0,WSW,6.9,-,N/A,,Clear,250,2012-10-08 10:53:00
7:53 AM,35.1,32.0,89,30.24,10.0,SW,4.6,-,N/A,,Clear,230,2012-10-08 11:53:00
8:53 AM,37.9,35.1,89,30.25,10.0,Variable,3.5,-,N/A,,Clear,0,2012-10-08 12:53:00
9:53 AM,43.0,36.0,76,30.25,10.0,SW,3.5,-,N/A,,Clear,220,2012-10-08 13:53:00
10:53 AM,48.0,32.0,54,30.26,10.0,WSW,4.6,-,N/A,,Partly Cloudy,250,2012-10-08 14:53:00
11:53 AM,48.9,28.9,46,30.25,10.0,South,5.8,-,N/A,,Clear,180,2012-10-08 15:53:00
12:53 PM,51.1,30.0,44,30.25,10.0,SSE,6.9,-,N/A,,Partly Cloudy,160,2012-10-08 16:53:00
1:53 PM,52.0,28.9,41,30.22,10.0,SW,5.8,-,N/A,,Partly Cloudy,230,2012-10-08 17:53:00
2:53 PM,52.0,30.9,45,30.19,10.0,SSW,6.9,-,N/A,,Mostly Cloudy,200,2012-10-08 18:53:00
3:53 PM,52.0,30.9,45,30.19,10.0,South,6.9,-,N/A,,Mostly Cloudy,190,2012-10-08 19:53:00
4:53 PM,52.0,30.9,45,30.18,10.0,South,6.9,-,N/A,,Mostly Cloudy,170,2012-10-08 20:53:00
5:53 PM,52.0,30.0,43,30.18,10.0,South,6.9,-,N/A,,Partly Cloudy,180,2012-10-08 21:53:00
6:53 PM,48.9,33.1,54,30.18,10.0,South,5.8,-,N/A,,Mostly Cloudy,180,2012-10-08 22:53:00
7:53 PM,46.0,33.1,61,30.17,10.0,South,8.1,-,N/A,,Clear,180,2012-10-08 23:53:00
8:53 PM,44.1,33.1,65,30.18,10.0,South,6.9,-,N/A,,Clear,180,2012-10-09 00:53:00
10:53 PM,39.0,33.1,79,30.20,10.0,South,5.8,-,N/A,,Clear,180,2012-10-09 02:53:00
11:53 PM,41.0,34.0,76,30.20,10.0,South,6.9,-,N/A,,Clear,180,2012-10-09 03:53:00